metlocid,date_time,avg_snowht,std_snowht,min_snowht,max_snowht,n_snowht,n_comments
BOYM,1/1/02,,,,,0,719
BOYM,2/1/02,,,,,0,2688
BOYM,3/1/02,,,,,0,2976
BOYM,4/1/02,,,,,0,2880
BOYM,5/1/02,,,,,0,2976
BOYM,6/1/02,,,,,0,2880
BOYM,7/1/02,,,,,0,2976
BOYM,8/1/02,,,,,0,2976
BOYM,9/1/02,,,,,0,2880
BOYM,10/1/02,,,,,0,2976
BOYM,11/1/02,,,,,0,2880
BOYM,12/1/02,-0.008585859,0.109964973,-0.4,0.4,1386,1590
BOYM,1/1/03,0.003757615,0.481175713,-0.6,3.9,2954,22
BOYM,2/1/03,-0.184821432,0.092157524,-0.7,0.2,2688,0
BOYM,3/1/03,1.22849462,1.505073067,-0.6,3.1,2976,0
BOYM,4/1/03,-0.341944451,0.207913194,-0.8,0.3,2880,0
BOYM,5/1/03,-0.262768824,0.163485962,-0.7,0.4,2976,0
BOYM,6/1/03,-0.201666672,0.147400778,-0.9,0.4,2880,0
BOYM,7/1/03,-0.033333334,0.094477941,-0.3,0.2,240,2736
BOYM,8/1/03,,,,,0,2976
BOYM,9/1/03,0.135232304,0.104533918,-0.2,0.5,1808,1072
BOYM,10/1/03,0.40850135,0.171728648,-0.2,0.9,2976,0
BOYM,11/1/03,0.486921745,0.386663665,-0.1,1.5,2875,5
BOYM,12/1/03,0.505443552,0.460665146,-0.5,1.6,2976,0
BOYM,1/1/04,0.026287448,0.497033949,-1.2,1.1,2971,5
BOYM,2/1/04,-0.754741381,0.180406985,-1.2,0.7,2784,0
BOYM,3/1/04,-0.749865593,0.2512757,-1.4,0.2,2976,0
BOYM,4/1/04,-0.793611111,0.173917972,-1.4,-0.2,2880,0
BOYM,5/1/04,-0.674462367,0.222120516,-1.9,0,2976,0
BOYM,6/1/04,-0.234861113,0.266908214,-1.2,0.3,2880,0
BOYM,7/1/04,0.172849465,0.267227435,-0.5,0.9,2976,0
BOYM,8/1/04,0.265629234,0.18413187,-0.4,1.4,2956,20
BOYM,9/1/04,0.067222224,0.241525907,-0.6,0.7,2880,0
BOYM,10/1/04,0.008198925,0.174394462,-0.8,0.4,2976,0
BOYM,11/1/04,0.060180682,0.100115865,-0.4,0.3,2878,2
BOYM,12/1/04,-0.10497312,0.271569607,-2.5,1.2,2976,0
BOYM,1/1/05,44.30967742,28.33024095,-130.4,62,2976,2212
BOYM,2/1/05,61.43913691,4.816675022,17.2,62,2688,2688
BOYM,3/1/05,60.91666667,29.53449106,-744,62,2976,2976
BOYM,4/1/05,62,0,62,62,2880,2880
BOYM,5/1/05,62,0,62,62,2976,2976
BOYM,6/1/05,62,0,62,62,2880,2880
BOYM,7/1/05,62,0,62,62,2976,2976
BOYM,8/1/05,62,0,62,62,2976,2976
BOYM,9/1/05,62,0,62,62,2880,2880
BOYM,10/1/05,62,0,62,62,2976,2976
BOYM,11/1/05,62,0,62,62,2880,2880
BOYM,12/1/05,61.24301075,5.695342504,10.9,62,2976,2976
BOYM,1/1/06,7.520833333,20.24515884,0,62,2976,2976
BOYM,2/1/06,0,0,0,0,2688,2688
BOYM,3/1/06,0,0,0,0,2976,2976
BOYM,4/1/06,0,0,0,0,2880,2880
BOYM,5/1/06,0,0,0,0,2976,2976
BOYM,6/1/06,0,0,0,0,2880,2880
BOYM,7/1/06,0,0,0,0,2976,2976
BOYM,8/1/06,0,0,0,0,2976,2976
BOYM,9/1/06,0,0,0,0,2880,2880
BOYM,10/1/06,0,0,0,0,2976,2976
BOYM,11/1/06,0,0,0,0,2880,2880
BOYM,12/1/06,0,0,0,0,2976,2976
BOYM,1/1/07,-0.025938803,0.237146051,-0.9,1.1,2876,2274
BOYM,2/1/07,-0.527529763,0.601524797,-1.2,1.7,2688,0
BOYM,3/1/07,-0.660349458,0.673892805,-1.3,4.6,2976,0
BOYM,4/1/07,-0.902777778,0.181363159,-1.6,-0.5,2880,0
BOYM,5/1/07,-0.806720429,0.115526689,-1.3,-0.3,2976,0
BOYM,6/1/07,-0.80722222,0.100450144,-1.1,-0.5,2880,0
BOYM,7/1/07,-0.693279573,0.143363659,-1.2,-0.2,2976,0
BOYM,8/1/07,-0.627822589,0.12002281,-1,-0.3,2976,0
BOYM,9/1/07,-0.544166675,0.123599484,-0.9,-0.2,2880,0
BOYM,10/1/07,-0.520135145,0.21460681,-1.2,0.7,2960,0
BOYM,11/1/07,-0.591620123,0.073457906,-0.7,-0.3,537,0
BOYM,12/1/07,-0.558305321,0.09598369,-0.9,-0.2,2974,0
BOYM,1/1/08,-0.460887106,0.305274229,-0.8,2.8,2976,0
BOYM,2/1/08,-0.291954032,0.082146401,-0.6,0,2784,0
BOYM,3/1/08,-0.361290329,0.216822465,-1.1,0,2976,0
BOYM,4/1/08,-0.078194446,0.085549552,-0.4,0.2,2880,0
BOYM,5/1/08,0.357258063,0.448790427,-0.6,1.3,2976,0
BOYM,6/1/08,0.275694452,0.132754257,-0.4,1.1,2880,0
BOYM,7/1/08,0.452150542,0.247003033,-0.1,1.1,2976,0
BOYM,8/1/08,0.528494628,0.232591287,-0.1,1,2976,0
BOYM,9/1/08,0.419583341,0.171031139,0.1,0.8,2880,0
BOYM,10/1/08,0.577284958,0.078696231,0.3,0.8,2976,0
BOYM,11/1/08,0.548194455,0.158482088,0.1,0.9,2880,0
BOYM,12/1/08,0.31223119,0.09728203,0,0.6,2976,0
BOYM,1/1/09,0.347930291,0.097353571,0.1,0.7,918,2058
BOYM,2/1/09,,,,,0,2688
BOYM,3/1/09,,,,,0,2976
BOYM,4/1/09,,,,,0,2880
BOYM,5/1/09,,,,,0,2976
BOYM,6/1/09,,,,,0,2880
BOYM,7/1/09,,,,,0,2976
BOYM,8/1/09,,,,,0,2976
BOYM,9/1/09,,,,,0,2880
BOYM,10/1/09,,,,,0,2976
BOYM,11/1/09,,,,,0,2880
BOYM,12/1/09,44.51236146,0.412150352,43.6,45.8,2888,87
BOYM,1/1/10,42.68104827,1.692058829,40.8,45.7,2976,0
BOYM,2/1/10,41.2008929,0.177898612,40.8,41.6,2688,0
BOYM,3/1/10,41.30321426,0.200688103,41,42.5,1120,1832
BOYM,4/1/10,,,,,0,2880
BOYM,5/1/10,,,,,0,2976
BOYM,6/1/10,,,,,0,2880
BOYM,7/1/10,,,,,0,2976
BOYM,8/1/10,,,,,0,2976
BOYM,9/1/10,,,,,0,2880
BOYM,10/1/10,,,,,0,2976
BOYM,11/1/10,,,,,0,2880
BOYM,12/1/10,40.88502078,0.093876956,40.7,41.2,988,1988
BOYM,1/1/11,40.90780785,0.481595349,40.6,53.2,2011,0
BOYM,12/1/11,51.60291453,0.26955033,51,52.4,995,0
BOYM,1/1/12,51.72795703,0.120717923,51.2,52.2,2976,0
BOYM,2/1/12,51.63477016,0.758081197,47.9,52.4,2784,0
BOYM,3/1/12,52.33064509,0.204623463,51.7,52.8,2976,0
BOYM,4/1/12,51.93027778,0.352157773,51,52.8,2880,0
BOYM,5/1/12,51.78803774,0.22401574,50.9,52.3,2976,0
BOYM,6/1/12,51.76816922,0.324377664,51.1,52.6,2840,40
BOYM,7/1/12,52.09961839,0.367718863,50.9,53.3,2096,880
BOYM,8/1/12,,,,,0,2976
BOYM,9/1/12,,,,,0,2880
BOYM,10/1/12,,,,,0,2976
BOYM,11/1/12,,,,,0,2880
BOYM,12/1/12,,,,,0,2976
BOYM,1/1/13,,,,,0,2976
BOYM,2/1/13,,,,,0,2688
BOYM,3/1/13,,,,,0,2976
BOYM,4/1/13,,,,,0,2880
BOYM,5/1/13,,,,,0,2976
BOYM,6/1/13,,,,,0,2880
BOYM,7/1/13,,,,,0,2976
BOYM,8/1/13,,,,,0,2976
BOYM,9/1/13,,,,,0,2880
BOYM,10/1/13,,,,,0,2976
BOYM,11/1/13,,,,,0,2880
BOYM,12/1/13,,,,,0,2976
BOYM,1/1/14,,,,,0,2976
BOYM,2/1/14,,,,,0,2688
BOYM,3/1/14,,,,,0,2976
BOYM,4/1/14,,,,,0,2880
BOYM,5/1/14,,,,,0,2976
BOYM,6/1/14,,,,,0,2880
BOYM,7/1/14,,,,,0,2976
BOYM,8/1/14,,,,,0,2976
BOYM,9/1/14,,,,,0,2880
BOYM,10/1/14,,,,,0,2976
BOYM,11/1/14,49.62819026,0.186111771,48.7,49.9,1387,1485
BOYM,12/1/14,49.51223112,0.223038372,48.5,50,2976,0
BOYM,1/1/15,49.45618284,0.269032539,48.5,50.2,2976,0
BOYM,2/1/15,49.72812481,0.093067665,49.4,50,2688,0
BOYM,3/1/15,49.72231164,0.121445709,49.3,50.2,2976,0
BOYM,4/1/15,49.27144061,0.226774102,48.6,49.9,2360,0
BOYM,5/1/15,48.93602167,0.199477066,48.5,49.6,2976,0
BOYM,6/1/15,49.05000003,0.508654107,48.2,50.2,2880,0
BOYM,7/1/15,48.80161292,0.402175627,48,49.7,2976,0
BOYM,8/1/15,48.752957,0.310734764,47.8,49.6,2976,0
BOYM,9/1/15,48.6762499,0.285035403,48.1,49.4,2720,0
BOYM,10/1/15,49.4163976,0.145382306,49.1,49.9,2976,0
BOYM,11/1/15,49.84336429,1.367254122,0,50.6,2871,0
BOYM,12/1/15,50.37486562,0.327105977,49.4,52.6,2976,0
BOYM,1/1/16,50.13306407,0.080223757,49.8,50.6,2976,0
BOYM,2/1/16,50.08606233,0.105438125,49.8,51.5,2784,0
BOYM,3/1/16,50.18709646,0.105487839,50,50.7,2976,0
BOYM,4/1/16,49.86722194,0.209023362,49.4,50.3,2880,0
BOYM,5/1/16,49.6926077,0.723770974,48.8,51.6,2976,0
BOYM,6/1/16,50.36319433,0.329186236,49.5,51.2,2880,0
BOYM,7/1/16,50.13679919,0.631639264,48,51.3,2943,32
BOYM,8/1/16,50.27121996,0.471909223,48.7,51.4,2533,113
BOYM,9/1/16,49.9285717,0.34835421,48.8,50.3,56,1
BOYM,11/1/16,49.80964426,5.076409987,0,82.6,1265,0
BOYM,12/1/16,48.2526882,10.32604179,0,110,2976,4
BOYM,1/1/17,2.936424732,12.16163097,0,54.1,2976,0
BOYM,2/1/17,0,0,0,0,2688,0
BOYM,3/1/17,0,0,0,0,2976,0
BOYM,4/1/17,0,0,0,0,2880,0
BOYM,5/1/17,0,0,0,0,2976,0
BOYM,6/1/17,0,0,0,0,2880,0
BOYM,7/1/17,0,0,0,0,2976,0
BOYM,8/1/17,0,0,0,0,2976,0
BOYM,9/1/17,0,0,0,0,2880,0
BOYM,10/1/17,0,0,0,0,2976,0
BOYM,11/1/17,0,0,0,0,1519,895
BOYM,12/1/17,,,,,0,1307
BOYM,1/1/18,,,,,0,229
BOYM,2/1/18,,,,,0,2688
BOYM,3/1/18,,,,,0,2976
BOYM,4/1/18,,,,,0,2880
BOYM,5/1/18,,,,,0,2976
BOYM,6/1/18,,,,,0,2880
BOYM,7/1/18,,,,,0,2976
BOYM,8/1/18,,,,,0,2976
BOYM,9/1/18,,,,,0,2880
BOYM,10/1/18,,,,,0,2976
BOYM,11/1/18,50.82624996,0.225916336,50.1,51.3,1280,1585
BOYM,12/1/18,50.46182837,0.118340547,50.1,51.5,2976,0
BOYM,1/1/19,50.41587918,0.085295809,50.2,50.8,2897,3
BOYM,2/1/19,50.44047683,0.121269921,50.1,51,2688,0
BOYM,3/1/19,50.73131742,0.279399653,50.3,52.2,2976,0
BOYM,4/1/19,50.74333293,0.349759116,50,52.2,2880,0
BOYM,5/1/19,50.59435477,0.183252718,50,51.1,2976,0
BOYM,6/1/19,50.57097227,0.251548556,49.8,51.1,2880,0
BOYM,7/1/19,50.35927432,1.571158576,36,51.8,2976,0
BOYM,8/1/19,48.16948921,3.983137157,36,51.4,2976,0
BOYM,9/1/19,49.3570834,0.324272817,48.7,50,2880,0
BOYM,10/1/19,49.84664025,0.094284839,49.4,50.2,2976,0
BOYM,11/1/19,50.19446235,0.273180695,49.6,50.9,2871,3
BOYM,12/1/19,49.70612275,7.612998058,0,53.6,1764,1212
BOYM,1/1/20,,,,,0,2976
BOYM,2/1/20,,,,,0,2784
BOYM,3/1/20,,,,,0,2976
BOYM,4/1/20,,,,,0,2880
BOYM,5/1/20,,,,,0,2976
BOYM,6/1/20,,,,,0,2880
BOYM,7/1/20,,,,,0,2976
BOYM,8/1/20,,,,,0,2976
BOYM,9/1/20,,,,,0,2880
BOYM,10/1/20,,,,,0,2976
BOYM,11/1/20,,,,,0,2880
BOYM,12/1/20,0,0,0,0,2832,144
BOYM,1/1/21,0,0,0,0,2976,0
BOYM,2/1/21,0,0,0,0,2688,0
BOYM,3/1/21,0,0,0,0,2976,0
BOYM,4/1/21,0,0,0,0,2880,0
BOYM,5/1/21,0,0,0,0,2976,0
BOYM,6/1/21,0,0,0,0,2880,0
BOYM,7/1/21,0,0,0,0,2976,0
BOYM,8/1/21,0,0,0,0,2976,0
BOYM,9/1/21,0,0,0,0,2880,0
BOYM,10/1/21,0,0,0,0,2976,0
BOYM,11/1/21,0,0,0,0,2880,0
BOYM,12/1/21,29.70508323,24.52635903,0,50.2,2951,0
BOYM,1/1/22,49.93897877,0.099407203,49.6,50.2,2976,0
BOYM,2/1/22,49.93958344,0.108218646,49.6,50.2,2688,0
BOYM,3/1/22,50.14381709,0.165337815,49.8,50.5,2976,0
BOYM,4/1/22,49.68444438,0.567874138,48.5,50.6,2880,0
BOYM,5/1/22,50.06196218,0.237730271,49.4,50.6,2976,0
BOYM,6/1/22,50.22777802,0.205599144,49.3,50.6,2880,0
BOYM,7/1/22,50.32674735,0.336742034,49.3,51.2,2976,0
BOYM,8/1/22,50.25134389,0.364506935,49.3,51,2976,0
BOYM,9/1/22,50.28902777,0.425977148,49.1,51.2,2880,0
BOYM,10/1/22,50.4591398,0.192629964,49.7,51.1,2976,0
BOYM,11/1/22,50.40041675,0.16208899,49.9,50.9,2880,0
BOYM,12/1/22,50.39466902,0.104683255,50.2,50.7,619,0